Weather History for Malmstrom AFB, MT

Change the Weather History Date:

Monday, October 15, 2012

  Actual Average (KGTF) Record (KGTF)
Temperature  
Mean Temperature 58 °F 46 °F  
Max Temperature 64 °F 58 °F 86 °F (1895)
Min Temperature 51 °F 33 °F 11 °F (1899)
Degree Days  
Heating Degree Days 8 19  
Month to date heating degree days 255  
Since 1 July heating degree days 662  
Cooling Degree Days 0 0  
Month to date cooling degree days 0  
Year to date cooling degree days 297  
Growing Degree Days 8 (Base 50)    
Moisture  
Dew Point 37 °F    
Average Humidity 43    
Maximum Humidity 59    
Minimum Humidity 31    
Precipitation  
Precipitation 0.00 in 0.03 in 0.65 in (1980)
Month to date precipitation 0.48  
Year to date precipitation 13.23  
Snow  
Snow 0.00 in 0.10 in 4.00 in (1980)
Month to date snowfall 1.5  
Since 1 July snowfall 3.0  
Since 1 September snowfall 2.7  
Snow Depth -    
Sea Level Pressure  
Sea Level Pressure 29.80 in    
Wind  
Wind Speed 19 mph (SSW)    
Max Wind Speed 25 mph    
Max Gust Speed 33 mph    
Visibility 10 miles    
Events      
T = Trace of Precipitation, MM = Missing Value Source: NWS Daily Summary

Daily Weather History Graph

Daily Weather History Graph

Search for Another Location

Airport:

Trip Planner

Search our weather history database for the weather conditions in past years. The results will help you decide how hot, cold, wet, or windy it might be!

Date:

Astronomy

Oct. 15, 2012 Rise Set
Actual Time 7:44 AM MDT 6:35 PM MDT
Civil Twilight 7:13 AM MDT 7:06 PM MDT
Nautical Twilight 6:37 AM MDT 7:42 PM MDT
Astronomical Twilight 6:01 AM MDT 8:17 PM MDT
Moon 8:03 AM MDT (10/15) 6:31 PM MDT (10/15)
Length of Visible Light 11h 53m
Length of Day
10h 51m
Waxing Crescent, 0% of the Moon is Illuminated
Oct 15
Waxing Crescent
Oct 21
First Quarter
Oct 29
Full
Nov 6
Last Quarter
Nov 13
New

Hourly Weather History & Observations

Time (MDT) Temp. Dew Point Humidity Pressure Visibility Wind Dir Wind Speed Gust Speed Precip Events Conditions
12:56 AM 62.1 °F 36.0 °F 38% 29.83 in 10.0 mi SSW 15.0 mph 27.6 mph N/A   Clear
1:56 AM 61.0 °F 36.0 °F 39% 29.81 in 10.0 mi SSW 24.2 mph 31.1 mph N/A   Clear
2:56 AM 61.0 °F 36.0 °F 39% 29.81 in 10.0 mi South 24.2 mph 31.1 mph N/A   Partly Cloudy
3:56 AM 61.0 °F 36.0 °F 39% 29.80 in 10.0 mi SSW 25.3 mph 31.1 mph N/A   Clear
4:56 AM 61.0 °F 37.0 °F 41% 29.79 in 10.0 mi SSW 19.6 mph 29.9 mph N/A   Clear
5:56 AM 61.0 °F 37.0 °F 41% 29.79 in 10.0 mi South 15.0 mph - N/A   Clear
6:56 AM 61.0 °F 37.9 °F 42% 29.81 in 10.0 mi SSW 19.6 mph 27.6 mph N/A   Overcast
7:56 AM 59.0 °F 39.0 °F 48% 29.81 in 10.0 mi SSW 15.0 mph - N/A   Partly Cloudy
8:56 AM 60.1 °F 39.0 °F 46% 29.79 in 10.0 mi SSW 18.4 mph - N/A   Clear
9:56 AM 60.1 °F 39.0 °F 46% 29.81 in 10.0 mi SSW 21.9 mph 32.2 mph N/A   Scattered Clouds
10:56 AM 60.1 °F 39.0 °F 46% 29.83 in 10.0 mi SSW 25.3 mph 33.4 mph N/A   Overcast
11:56 AM 60.1 °F 39.0 °F 46% 29.83 in 10.0 mi SSW 21.9 mph 33.4 mph N/A   Mostly Cloudy
12:56 PM 60.1 °F 39.0 °F 46% 29.83 in 10.0 mi SSW 21.9 mph 29.9 mph N/A   Overcast
2:56 PM 64.0 °F 39.0 °F 40% 29.79 in 10.0 mi SSW 23.0 mph 33.4 mph N/A   Clear
3:56 PM 64.9 °F 39.0 °F 39% 29.81 in 10.0 mi WSW 18.4 mph 26.5 mph N/A   Partly Cloudy
4:56 PM 64.9 °F 39.0 °F 39% 29.79 in 10.0 mi SW 21.9 mph 33.4 mph N/A   Mostly Cloudy
5:56 PM 63.0 °F 32.0 °F 31% 29.81 in 10.0 mi SW 19.6 mph 28.8 mph N/A   Clear
6:56 PM 60.1 °F 32.0 °F 35% 29.81 in 10.0 mi SW 12.7 mph - N/A   Clear
7:56 PM 55.0 °F 37.0 °F 51% 29.83 in 10.0 mi SSW 12.7 mph - N/A   Clear
9:56 PM 54.0 °F 37.0 °F 53% 29.80 in 10.0 mi SSW 16.1 mph - N/A   Clear
10:56 PM 51.1 °F 37.0 °F 59% 29.78 in 10.0 mi South 11.5 mph - N/A   Clear
11:56 PM 55.0 °F 36.0 °F 49% 29.71 in 10.0 mi South 13.8 mph - N/A   Clear